Home > Weather > Reims > Past weeks

Flag for France Weather for the Past 2 Weeks in Reims, France

Now
37 °F

Passing clouds.


Feels Like: 28 °F
Forecast: 36 / 44 °F
Wind: 15 mph from Southwest

Location: Chalons-Vatry

Current Time: Feb 10, 2016 at 2:47:08 AM

Latest Report: Feb 10, 2016 at 2:00 AM


Visibility: N/A

Pressure: 29.45 "Hg

Humidity: 87%

Dew point: 34 °F

Location of ReimsLocation

Historic Weather in Reims — Graph

°F

Reims Temperature Yesterday

Maximum temperature yesterday: 52 °F (at 11:00 AM)
Minimum temperature yesterday: 34 °F (at 9:30 PM)
Average temperature yesterday: 44 °F

High & Low Weather Summary for the Past Weeks

 TemperatureHumidityPressure
High57 °F (Feb 6, 3:30 PM)100% (Jan 26, 7:30 AM)30.45 "Hg (Jan 26, 7:30 AM)
Low32 °F (Jan 29, 3:30 AM)59% (Feb 6, 3:30 PM)29.06 "Hg (Feb 9, 1:30 PM)
Average46 °F88%30.06 "Hg
* Reported Jan 26 1:00 AM — Feb 10 1:30 AM, Reims, Weather by CustomWeather, © 2016

Note: Actual official high and low records may vary slightly from our data, if they occured in-between our weather recording intervals... More about our weather records

Advertising

Reims Weather History for the Previous 24 Hours

 ConditionsComfort  
Time TempWeatherWind HumidityBarometerVisibility
1:30 AM
Wed, Feb 10
36 °FPassing clouds.16 mph93%29.45 "HgN/A
1:00 AM36 °FLight rain. Mostly cloudy.15 mph100%29.45 "HgN/A
12:30 AM36 °FPassing clouds.17 mph100%29.42 "HgN/A
12:00 AM36 °FPassing clouds.15 mph93%29.42 "HgN/A
11:30 PM
Tue, Feb 9
36 °FPartly cloudy.13 mph93%29.42 "HgN/A
10:30 PM36 °FLight rain. Partly cloudy.9 mph93%29.39 "HgN/A
10:00 PM36 °FLight rain. Passing clouds.13 mph93%29.36 "HgN/A
9:30 PM34 °FLight rain. Partly cloudy.16 mph93%29.36 "HgN/A
9:00 PM37 °FLight rain. Partly cloudy.14 mph93%29.33 "HgN/A
8:30 PM39 °FLight rain. Partly cloudy.15 mph87%29.33 "HgN/A
8:00 PM39 °FPassing clouds.13 mph87%29.33 "HgN/A
7:30 PM39 °FMostly cloudy.13 mph81%29.30 "HgN/A
7:00 PM41 °FOvercast.14 mph76%29.30 "HgN/A
6:30 PM41 °FMostly cloudy.12 mph81%29.27 "HgN/A
6:00 PM41 °FPartly sunny.9 mph81%29.27 "HgN/A
5:30 PM41 °FPartly sunny.10 mph81%29.24 "HgN/A
5:00 PM41 °FBroken clouds.20 mph76%29.24 "HgN/A
4:30 PM43 °FBroken clouds.23 mph81%29.21 "HgN/A
4:00 PM45 °FPartly sunny.33 mph76%29.18 "HgN/A
3:30 PM48 °FCloudy.30 mph66%29.15 "HgN/A
3:00 PM50 °FBroken clouds.41 mph67%29.09 "HgN/A
2:30 PM52 °FPartly sunny.31 mph77%29.09 "HgN/A
2:00 PM52 °FThundershowers. Partly sunny.38 mph82%29.06 "HgN/A
1:30 PM52 °FBroken clouds.31 mph82%29.06 "HgN/A
1:00 PM50 °FCool.35 mph82%29.09 "HgN/A
12:30 PM50 °FBroken clouds.38 mph82%29.09 "HgN/A
11:30 AM50 °FRain. Mostly cloudy.41 mph88%29.21 "Hg4 mi
11:00 AM52 °FMostly cloudy.37 mph82%29.18 "HgN/A
10:30 AM50 °FPartly sunny.37 mph88%29.21 "HgN/A
10:00 AM48 °FOvercast.35 mph94%29.24 "HgN/A
9:30 AM48 °FLight rain. Overcast.32 mph94%29.27 "HgN/A
9:00 AM46 °FLight rain. Mostly cloudy.29 mph93%29.30 "HgN/A
8:30 AM46 °FLow clouds.30 mph93%29.36 "HgN/A
8:00 AM45 °FLight rain. Passing clouds.24 mph100%29.39 "Hg4 mi
7:30 AM45 °FLight rain. Partly cloudy.23 mph93%29.45 "Hg4 mi
7:00 AM45 °FLight rain. Partly cloudy.21 mph93%29.47 "Hg6 mi
6:30 AM45 °FLight rain. Partly cloudy.21 mph93%29.50 "HgN/A
6:00 AM45 °FPartly cloudy.23 mph93%29.56 "HgN/A
5:30 AM45 °FClear.21 mph87%29.56 "Hg10 mi
4:30 AM45 °FClear.20 mph81%29.62 "Hg10 mi
4:00 AM45 °FClear.20 mph81%29.65 "Hg10 mi
3:30 AM45 °FClear.20 mph81%29.65 "Hg10 mi
2:30 AM45 °FPassing clouds.23 mph81%29.68 "HgN/A
2:00 AM45 °FPassing clouds.20 mph81%29.68 "HgN/A
Weather by CustomWeather, © 2016

See weather overviewHow to use our weather pages